Notices

What's New in latest Release from April 7th, 2021:

- Updated Glossary, including Speed of Maximum Gust, and Total Hourly Precipitation

- Updated national and regional climate services offices contacts and prices information

- Addition of station inventory lists for 1981-2010, 1971-2000, and 1961-1990 Normals.

If you haven't already, please take our survey and provide feedback about our website: https://eccc.sondage-survey.ca/f/LanguageSelection.aspx?s=442ca660-fcf1-47c0-95a9-59707d6fd709

Hourly Data Report for August 08, 2018

TORONTO CITY
ONTARIO
Current Station Operator: ECCC - MSC

43°40'00.000" N
79°24'00.000" W
112.50 m
6158355
71508
XTO

Download Data

Hourly Data (August 2018)
Hourly Data Report for August 8, 2018
TIME
LST
Temp Definition
°C
Dew Point Definition
°C
Rel Hum Definition
%
Precip. Amount Definition
mm

Wind Dir Definition
10's deg

Wind Spd Definition
km/h
Visibility Definition
km
Stn Press Definition
kPa
Hmdx Definition


Wind Chill Definition


Weather Definition


00:00 21.1 19.3 89 0.0 LegendMM LegendMM   99.92 28   LegendNANA
01:00 21.7 20.0 90 0.0 LegendMM LegendMM   99.92 29   LegendNANA
02:00 21.8 20.0 89 0.0 LegendMM LegendMM   99.88 29   LegendNANA
03:00 22.3 20.6 90 0.0 LegendMM LegendMM   99.84 30   LegendNANA
04:00 22.2 20.4 90 0.0 LegendMM LegendMM   99.78 30   LegendNANA
05:00 22.6 20.9 90 0.0 LegendMM LegendMM   99.80 31   LegendNANA
06:00 22.8 21.0 90 0.6 LegendMM LegendMM   99.83 31   LegendNANA
07:00 22.6 20.9 90 2.5 LegendMM LegendMM   99.82 31   LegendNANA
08:00 22.9 21.1 90 0.7 LegendMM LegendMM   99.81 31   LegendNANA
09:00 21.3 19.6 90 17.3 LegendMM LegendMM   99.78 29   LegendNANA
10:00 22.1 20.0 88 0.2 LegendMM LegendMM   99.76 30   LegendNANA
11:00 24.3 20.3 79 0.2 LegendMM LegendMM   99.70 32   LegendNANA
12:00 24.1 20.1 79 0.0 LegendMM LegendMM   99.72 32   LegendNANA
13:00 25.7 19.0 66 0.0 LegendMM LegendMM   99.65 32   LegendNANA
14:00 25.2 18.9 68 0.0 LegendMM LegendMM   99.64 32   LegendNANA
15:00 24.5 20.2 77 0.0 LegendMM LegendMM   99.57 32   LegendNANA
16:00 24.6 20.2 77 0.0 LegendMM LegendMM   99.53 32   LegendNANA
17:00 25.2 19.3 70 0.0 LegendMM LegendMM   99.51 32   LegendNANA
18:00 25.2 19.4 70 0.0 LegendMM LegendMM   99.51 32   LegendNANA
19:00 24.0 20.6 81 0.5 LegendMM LegendMM   99.55 32   LegendNANA
20:00 23.6 17.9 70 0.0 LegendMM LegendMM   99.59 30   LegendNANA
21:00 23.1 17.4 71 0.0 LegendMM LegendMM   99.67 29   LegendNANA
22:00 22.7 16.7 69 0.0 LegendMM LegendMM   99.68 28   LegendNANA
23:00 22.2 16.9 72 0.0 LegendMM LegendMM   99.69 27   LegendNANA

Notes on Data Quality.

Legend

  • E = Estimated
  • M = Missing
  • NA = Not Available*
  • [empty] = Indicates an unobserved value
Date modified: